Vorticity
11 13 13 10 6 5 5 5 7 6 6 9 7 6 4 5 5 5 5 3 6 6 10 8 8 9 1 23 12 17 10 20 27 1 -2 -5 45 -24
12 13 10 8 5 5 5 7 8 6 7 12 10 9 8 8 9 9 11 14 13 12 9 13 16 5 7 -6 19 8 5 23 9 30 14 -3 31 44
12 10 8 7 5 5 7 9 8 9 8 8 9 10 9 9 8 9 7 10 12 12 10 7 2 10 10 9 15 10 19 4 9 39 33 21 46 -6
10 8 8 6 6 7 9 7 9 8 6 4 6 7 6 6 8 10 11 14 24 23 19 10 11 7 14 13 19 10 16 8 17 31 33 30 30 16
8 9 8 8 8 8 6 6 5 4 6 6 10 12 13 16 14 13 22 16 19 25 26 23 7 5 1 14 17 14 12 -1 22 29 29 41 45 -3
9 9 8 7 6 5 4 5 7 13 15 15 15 18 21 16 23 19 11 12 17 25 26 22 15 7 2 5 23 17 4 2 34 5 15 31 22 32
9 8 6 5 4 4 6 10 14 13 15 16 17 15 14 27 13 10 17 10 20 19 24 27 29 19 23 3 19 23 8 6 31 1 29 6 42 18
7 6 5 4 4 6 13 14 15 14 16 12 12 20 18 13 9 8 13 12 17 6 21 21 23 28 10 6 17 22 5 7 30 10 -4 24 39 9
6 6 4 4 6 12 14 14 13 17 10 11 19 14 13 10 6 5 10 11 15 10 12 25 9 20 3 8 18 33 8 11 20 6 20 35 7 68
6 5 5 6 10 13 13 14 15 14 10 17 14 12 11 6 7 8 12 12 10 18 13 21 21 15 8 14 13 29 2 14 19 10 13 38 25 40
5 4 6 6 12 13 13 13 15 12 12 19 12 13 9 5 9 11 13 6 17 15 15 13 15 8 9 14 19 18 1 27 17 11 15 17 41 25
4 4 6 13 14 12 11 10 13 11 11 20 12 10 9 8 11 14 16 11 13 17 11 15 10 12 17 16 20 16 20 23 8 12 21 42 22 26
4 5 10 15 11 11 11 9 11 10 13 17 10 10 11 11 14 19 24 22 22 13 11 12 11 12 13 13 20 17 24 21 17 17 13 9 8 19
4 9 16 11 10 12 12 11 12 11 16 14 8 11 11 14 20 23 24 22 20 16 15 17 14 14 14 15 13 20 25 18 20 23 35 5 0 4
9 13 10 11 11 12 12 10 11 10 19 14 8 10 13 17 20 21 19 21 18 19 19 18 16 15 14 11 14 23 15 9 16 7 13 6 29 -1
11 9 11 11 12 11 10 10 11 9 20 10 8 10 14 19 19 16 14 13 15 16 17 16 16 12 11 12 17 22 13 13 19 10 55 23 9 43
8 6 8 10 13 12 11 10 11 9 20 11 8 10 14 18 19 14 11 11 14 14 15 14 11 11 12 18 18 21 14 16 12 21 1 -2 21 53
5 5 6 7 10 13 12 11 11 10 17 14 8 11 13 16 19 14 11 11 11 11 13 12 11 12 19 20 14 18 13 21 14 28 37 18 30 18
5 5 5 7 9 11 13 13 10 10 11 17 10 12 11 13 19 15 12 11 10 9 14 14 13 18 21 14 17 7 22 22 23 26 18 22 8 3
4 5 5 6 7 10 12 14 10 10 8 18 12 12 11 8 17 16 13 11 12 12 13 16 17 20 13 21 9 8 13 20 13 17 14 11 7 4
5 6 6 7 7 9 10 14 10 9 9 14 15 12 11 7 14 14 11 12 14 14 12 15 16 17 12 17 8 9 10 10 10 3 -1 3 5 4
7 7 7 7 7 9 10 12 11 8 11 9 18 13 13 8 9 15 14 12 11 14 14 12 18 20 15 16 13 12 11 13 10 8 5 2 8 11
7 7 7 8 8 9 11 11 11 9 10 9 16 14 13 8 9 12 12 16 13 15 16 14 19 17 10 6 10 16 13 7 5 7 8 6 10 11
Height
3086 3081 3076 3073 3071 3067 3063 3058 3052 3043 3041 3043 3036 3035 3029 3024 3016 3012 3008 3003 2998 2994 2990 2985 2981 2978 2975 2972 2968 2966 2964 2962 2959 2959 2965 2972 2977 2982
3077 3073 3069 3066 3063 3060 3055 3050 3044 3037 3029 3032 3028 3023 3017 3012 3006 3000 2996 2991 2986 2983 2979 2974 2969 2967 2964 2962 2958 2956 2953 2952 2949 2950 2953 2959 2968 2972
3069 3065 3062 3059 3055 3051 3047 3042 3037 3031 3022 3020 3015 3011 3006 2999 2994 2988 2983 2977 2972 2968 2966 2963 2959 2956 2955 2951 2949 2946 2943 2942 2940 2939 2943 2950 2952 2959
3062 3059 3057 3053 3049 3044 3039 3034 3029 3022 3014 3005 3005 2999 2992 2986 2980 2974 2969 2963 2957 2953 2951 2950 2946 2945 2944 2942 2939 2937 2935 2932 2931 2930 2933 2938 2950 2952
3056 3053 3050 3046 3041 3036 3032 3027 3021 3014 3007 2997 2991 2986 2979 2974 2966 2960 2954 2948 2944 2939 2936 2936 2935 2934 2935 2932 2929 2927 2926 2924 2922 2923 2925 2928 2936 2946
3050 3047 3043 3039 3034 3029 3024 3019 3012 3004 2994 2986 2980 2973 2968 2963 2956 2948 2944 2939 2933 2929 2925 2922 2922 2923 2925 2923 2920 2918 2918 2916 2914 2915 2917 2921 2927 2935
3043 3041 3038 3033 3027 3022 3016 3009 3002 2995 2988 2978 2971 2965 2959 2952 2948 2942 2934 2930 2926 2920 2915 2913 2912 2913 2915 2914 2912 2910 2910 2909 2908 2908 2908 2913 2919 2927
3038 3035 3032 3028 3022 3016 3009 3001 2993 2985 2978 2970 2964 2957 2951 2946 2941 2935 2929 2923 2917 2916 2909 2907 2906 2906 2907 2906 2904 2902 2902 2902 2902 2903 2904 2903 2910 2919
3031 3028 3025 3020 3014 3007 3000 2993 2987 2978 2969 2962 2955 2951 2946 2940 2934 2929 2925 2918 2913 2910 2904 2901 2901 2900 2900 2898 2897 2895 2895 2895 2896 2898 2898 2897 2901 2910
3025 3021 3017 3013 3006 2998 2992 2986 2980 2973 2965 2958 2950 2946 2940 2934 2928 2923 2918 2913 2909 2906 2900 2896 2897 2895 2894 2893 2891 2889 2890 2891 2891 2892 2893 2892 2895 2901
3019 3015 3011 3005 2998 2991 2985 2980 2974 2966 2960 2953 2948 2942 2936 2930 2924 2917 2913 2907 2903 2901 2897 2893 2892 2890 2889 2888 2886 2885 2887 2886 2887 2889 2890 2889 2893 2903
3014 3009 3004 2997 2991 2985 2979 2972 2966 2960 2953 2948 2945 2939 2933 2926 2920 2913 2907 2901 2898 2895 2893 2890 2889 2886 2883 2884 2882 2882 2882 2884 2886 2887 2889 2887 2890 2903
3008 3003 2997 2991 2986 2980 2974 2966 2959 2954 2949 2943 2938 2932 2926 2921 2914 2907 2901 2895 2893 2891 2889 2887 2885 2883 2881 2879 2879 2879 2880 2881 2883 2886 2889 2895 2899 2906
3001 2995 2989 2985 2980 2974 2969 2961 2955 2950 2944 2939 2933 2927 2922 2916 2909 2901 2896 2892 2889 2888 2886 2885 2883 2881 2879 2878 2877 2877 2878 2880 2883 2887 2890 2894 2898 2906
2992 2987 2983 2979 2974 2969 2963 2956 2951 2946 2939 2934 2929 2924 2918 2912 2905 2899 2895 2891 2888 2886 2884 2883 2881 2880 2879 2878 2877 2877 2878 2881 2882 2886 2893 2897 2901 2907
2986 2983 2978 2973 2969 2964 2957 2952 2948 2942 2936 2930 2926 2921 2916 2910 2904 2899 2895 2892 2890 2887 2884 2882 2881 2881 2879 2879 2880 2879 2879 2881 2884 2889 2893 2900 2906 2910
2980 2977 2973 2969 2964 2958 2952 2948 2943 2939 2934 2928 2923 2918 2914 2909 2904 2899 2896 2894 2891 2888 2886 2884 2882 2882 2881 2881 2881 2881 2882 2883 2887 2891 2898 2902 2907 2914
2974 2971 2966 2963 2957 2953 2948 2945 2939 2935 2930 2926 2921 2916 2912 2908 2905 2900 2897 2895 2893 2891 2889 2887 2885 2884 2885 2885 2884 2885 2887 2888 2892 2898 2905 2911 2917 2927
2969 2965 2961 2957 2952 2948 2944 2940 2936 2931 2927 2923 2920 2915 2911 2908 2905 2901 2899 2897 2895 2893 2891 2889 2888 2887 2888 2889 2889 2891 2895 2898 2901 2907 2914 2920 2925 2932
2964 2959 2955 2951 2946 2943 2940 2936 2932 2928 2925 2921 2918 2914 2910 2908 2906 2902 2900 2898 2896 2895 2893 2892 2891 2892 2892 2894 2893 2895 2902 2908 2913 2918 2923 2927 2933 2937
2956 2954 2949 2945 2940 2938 2935 2931 2928 2925 2921 2919 2916 2913 2909 2907 2906 2903 2901 2899 2898 2896 2895 2895 2895 2895 2896 2898 2901 2902 2907 2914 2920 2926 2928 2932 2936 2940
2949 2946 2942 2937 2934 2932 2929 2926 2924 2921 2919 2916 2914 2912 2909 2906 2906 2904 2901 2900 2899 2898 2897 2897 2897 2898 2900 2904 2907 2910 2913 2917 2922 2928 2932 2936 2940 2943
2939 2937 2934 2931 2927 2926 2924 2921 2919 2916 2914 2912 2910 2909 2907 2905 2905 2904 2903 2901 2900 2900 2900 2900 2901 2902 2904 2907 2911 2915 2919 2922 2925 2929 2932 2935 2939 2943